Location: ??????
(55.7522°N, 37.6156°E)
Time: 12:26:32
(UTC+00:00)

USA 229 DEB - Pass Details

Date: 21 December 2025
Orbit: 844 x 1364 km, 63.4° (Epoch: 10 January)

Event Time Altitude Azimuth Distance (km) Brightness Sun altitude
Exits shadow 04:25:16 13° 278° (W) 2,997 5.4 -11.5°
Maximum altitude 04:28:11 16° 254° (WSW) 2,846 5.5 -11.2°
Drops below altitude 10° 04:32:30 10° 221° (SW) 3,331 6.1 -10.6°
Sets 04:36:50 0° 202° (SSW) 4,354 7.0 -10.1°
